Flag for Germany Weather past 2 weeks in Kaiserslautern, Rhineland-Palatinate, Germany

Now
27 °F

Clear.


Feels Like: 23 °F
Forecast: 31 / 39 °F
Wind: 3 mph from Southwest

Location: Ramstein

Current Time: Jan 27, 2015 at 6:54:31 AM

Latest Report: Jan 27, 2015 at 5:58 AM


Visibility: N/A

Pressure: 30.24 "Hg

Humidity: 93%

Dew point: 25 °F

Location of KaiserslauternLocation

Historic Weather in Kaiserslautern — Graph

°F

Kaiserslautern temperature yesterday

Maximum temperature yesterday: 36 °F (at 10:58 AM)
Minimum temperature yesterday: 32 °F (at 12:01 AM)
Average temperature yesterday: 34 °F

Past Weeks' High & Low Weather Summary

 TemperatureHumidityPressure
High55 °F (Jan 13, 2:58 PM)100% (Jan 16, 2:58 PM)30.48 "Hg (Jan 16, 2:58 PM)
Low21 °F (Jan 21, 12:58 AM)34% (Jan 13, 12:58 PM)29.65 "Hg (Jan 15, 6:58 PM)
Average36 °F84%30.03 "Hg
* Reported Jan 12 4:58 AM — Jan 27 4:58 AM, Kaiserslautern, Weather by CustomWeather, © 2014

Note: Actual official high and low records may vary slightly from our data, if they occured in-between our weather recording intervals... More about our weather records

Advertising

Kaiserslautern weather history for previous 24 hours

 ConditionsComfort  
Time TempWeatherWind HumidityBarometerVisibility
4:58 AM
Jan 27
30 °FClear.No wind86%30.22 "HgN/A
3:58 AM32 °FPassing clouds.3 mph96%30.20 "HgN/A
2:58 AM31 °FClear.2 mph96%30.20 "HgN/A
1:58 AM32 °FPassing clouds.3 mph100%30.19 "HgN/A
12:58 AM33 °FClear.8 mph97%30.18 "HgN/A
11:58 PM
Jan 26
35 °FMostly cloudy.5 mph98%30.17 "HgN/A
10:58 PM34 °FPassing clouds.5 mph97%30.16 "HgN/A
9:59 PM34 °FPartly cloudy.6 mph93%30.10 "HgN/A
8:58 PM35 °FLight rain. Low clouds.7 mph96%30.16 "HgN/A
7:59 PM34 °FLow clouds.7 mph93%30.10 "HgN/A
7:01 PM34 °FLight rain. Low clouds.8 mph93%30.10 "HgN/A
5:58 PM34 °FLight rain. Low clouds.8 mph93%30.16 "HgN/A
4:58 PM34 °FLight snow. Low clouds.9 mph93%30.16 "HgN/A
4:01 PM32 °FLight snow. Ice fog.10 mph100%30.13 "Hg2 mi
3:58 PM34 °FLight snow. Fog.9 mph93%30.18 "Hg3 mi
2:58 PM35 °FLight snow. Low clouds.8 mph90%30.19 "HgN/A
1:58 PM36 °FLight snow. Overcast.7 mph87%30.22 "HgN/A
1:01 PM36 °FLight rain. Mostly cloudy.8 mph87%30.19 "HgN/A
12:58 PM36 °FLight rain. Mostly cloudy.8 mph87%30.24 "HgN/A
11:58 AM36 °FLight rain. Overcast.7 mph93%30.27 "HgN/A
10:58 AM36 °FLight snow. Low clouds.6 mph87%30.29 "HgN/A
9:58 AM34 °FLight rain. Low clouds.7 mph93%30.31 "HgN/A
8:58 AM34 °FLight snow. Mostly cloudy.5 mph93%30.32 "HgN/A
8:01 AM32 °FLight snow. Low clouds.6 mph100%30.28 "HgN/A
7:58 AM32 °FLight rain. Mostly cloudy.5 mph100%30.33 "HgN/A
6:58 AM34 °FLow clouds.2 mph93%30.34 "HgN/A
Weather by CustomWeather, © 2014

See weather overviewHow to use our weather pages